User: anonymous   Login
Location: Waning Moon II Observatory
(30.3730°N, 89.7620°W)
Time: 05:19:01
(UTC-05:00)
Language:

Cosmos 1825 Rocket - Orbit

View from above orbital plane
View from above orbital plane
View from above satellite
View from above satellite

Ground track
Ground track

The orbit data is extracted from the following two-line orbital elements,

1 17567U 87024B   15208.27045188  .00000125  00000-0  12192-4 0  9995
2 17567 082.5311 125.6033 0020835 103.9433 256.4101 14.83462777534021
Epoch (UTC): 27 July 2015 06:29:27
Eccentricity: 0.0020835
inclination: 82.5311°
perigee height: 604 km
apogee height: 633 km
right ascension of ascending node: 125.6033°
argument of perigee: 103.9433°
revolutions per day: 14.83462777
mean anomaly at epoch: 256.4101°
orbit number at epoch: 53402

The dashed part of the orbit path shows where the satellite is in the earth's shadow,  

DLR